Weather History for Pensacola NAS, FL

Change the Weather History Date:

Monday, July 22, 2013

  Actual Average Record
Temperature  
Mean Temperature 78 °F -  
Max Temperature 87 °F 87 °F 93 °F (1999)
Min Temperature 71 °F 72 °F 71 °F (2004)
Cooling Degree Days 12    
Growing Degree Days 28 (Base 50)    
Moisture  
Dew Point 74 °F    
Average Humidity 90    
Maximum Humidity 100    
Minimum Humidity 74    
Precipitation  
Precipitation 1.52 in - - ()
Sea Level Pressure  
Sea Level Pressure 30.05 in    
Wind  
Wind Speed 8 mph (WSW)    
Max Wind Speed 24 mph    
Max Gust Speed 36 mph    
Visibility 7 miles    
Events Fog , Rain , Thunderstorm    
Averages and records for this station are not official NWS values.
T = Trace of Precipitation, MM = Missing Value Source: NWS Daily Summary

Daily Weather History Graph

Daily Weather History Graph

Search for Another Location

Airport:

Trip Planner

Search our weather history database for the weather conditions in past years. The results will help you decide how hot, cold, wet, or windy it might be!

Date:

Astronomy

Jul. 22, 2013 Rise Set
Actual Time 6:01 AM CDT 7:49 PM CDT
Civil Twilight 5:35 AM CDT 8:15 PM CDT
Nautical Twilight 5:03 AM CDT 8:48 PM CDT
Astronomical Twilight 4:29 AM CDT 9:21 PM CDT
Moon 7:42 PM CDT (7/22) 5:53 AM CDT (7/22)
Length of Visible Light 14h 40m
Length of Day
13h 47m
Full, 100% of the Moon is Illuminated
Jul 22
Full
Jul 22
Full
Jul 29
Last Quarter
Aug 6
New
Aug 14
First Quarter

Hourly Weather History & Observations

Time (CDT) Temp. Heat Index Dew Point Humidity Pressure Visibility Wind Dir Wind Speed Gust Speed Precip Events Conditions
12:56 AM 79.0 °F - 73.9 °F 84% 30.05 in 10.0 mi SSW 10.4 mph - N/A   Clear
1:56 AM 79.0 °F - 75.0 °F 88% 30.03 in 10.0 mi SSW 10.4 mph - N/A   Clear
2:56 AM 80.1 °F 85.1 °F 75.0 °F 85% 30.03 in 10.0 mi SW 8.1 mph - N/A   Partly Cloudy
3:08 AM 80.6 °F 86.2 °F 75.2 °F 84% 30.03 in 10.0 mi SW 9.2 mph - N/A   Mostly Cloudy
3:56 AM 80.1 °F 85.4 °F 75.9 °F 87% 30.03 in 10.0 mi SW 6.9 mph - N/A   Mostly Cloudy
4:56 AM 80.1 °F 85.4 °F 75.9 °F 87% 30.03 in 10.0 mi SW 6.9 mph - N/A   Mostly Cloudy
5:08 AM 80.6 °F 86.2 °F 75.2 °F 84% 30.03 in 10.0 mi WSW 6.9 mph - N/A   Scattered Clouds
5:56 AM 80.1 °F 85.4 °F 75.9 °F 87% 30.05 in 10.0 mi WSW 4.6 mph - N/A   Scattered Clouds
6:18 AM 80.6 °F 86.2 °F 75.2 °F 84% 30.04 in 10.0 mi WSW 5.8 mph - N/A   Mostly Cloudy
6:46 AM 80.6 °F 87.1 °F 77.0 °F 89% 30.04 in 10.0 mi West 3.5 mph - 0.00 in Rain , Thunderstorm Light Thunderstorms and Rain
6:56 AM 80.1 °F 85.8 °F 77.0 °F 90% 30.05 in 10.0 mi SW 5.8 mph - 0.00 in Thunderstorm Thunderstorm
7:36 AM 78.8 °F - 73.4 °F 83% 30.06 in 10.0 mi Variable 3.5 mph - 0.00 in Rain Light Rain
7:52 AM 80.6 °F 85.4 °F 73.4 °F 79% 30.06 in 10.0 mi SW 4.6 mph - 0.00 in   Mostly Cloudy
7:56 AM 80.1 °F 85.1 °F 75.0 °F 85% 30.07 in 10.0 mi SW 3.5 mph - 0.00 in   Mostly Cloudy
8:56 AM 82.0 °F 88.6 °F 75.0 °F 79% 30.07 in 10.0 mi WSW 5.8 mph - N/A   Mostly Cloudy
9:56 AM 84.0 °F 92.6 °F 75.9 °F 76% 30.06 in 10.0 mi SW 10.4 mph 16.1 mph N/A   Mostly Cloudy
10:53 AM 84.2 °F 92.3 °F 75.2 °F 74% 30.05 in 10.0 mi SW 12.7 mph 17.3 mph N/A Thunderstorm Thunderstorm
10:56 AM 84.9 °F 94.1 °F 75.9 °F 74% 30.06 in 10.0 mi WSW 11.5 mph 17.3 mph N/A Thunderstorm Thunderstorm
11:14 AM 80.6 °F 85.4 °F 73.4 °F 79% 30.07 in 0.5 mi NW 12.7 mph 19.6 mph 0.05 in Rain , Thunderstorm Thunderstorms and Rain
11:16 AM 77.0 °F - 73.4 °F 89% 30.07 in 1.0 mi WNW 10.4 mph 19.6 mph 0.09 in Rain , Thunderstorm Thunderstorms and Rain
11:19 AM 75.2 °F - 71.6 °F 89% 30.08 in 0.2 mi WNW 11.5 mph 24.2 mph 0.26 in Fog , Rain , Thunderstorm Heavy Thunderstorms and Rain
11:24 AM 75.2 °F - 71.6 °F 89% 30.07 in 2.0 mi West 4.6 mph 24.2 mph 0.39 in Rain , Thunderstorm Heavy Thunderstorms and Rain
11:32 AM 75.2 °F - 73.4 °F 94% 30.07 in 3.0 mi NW 4.6 mph - 0.39 in Rain , Thunderstorm Light Thunderstorms and Rain
11:56 AM 75.9 °F - 73.9 °F 94% 30.06 in 5.0 mi NNW 5.8 mph - 0.39 in Rain , Thunderstorm Light Thunderstorms and Rain
12:13 PM 75.2 °F - 73.4 °F 94% 30.11 in 1.5 mi WSW 11.5 mph 18.4 mph 0.06 in Rain , Thunderstorm Heavy Thunderstorms and Rain
12:16 PM 75.2 °F - 73.4 °F 94% 30.09 in 0.5 mi SW 19.6 mph 25.3 mph 0.13 in Fog , Rain , Thunderstorm Heavy Thunderstorms and Rain
12:21 PM 73.4 °F - 71.6 °F 94% 30.08 in 1.5 mi WSW 8.1 mph 25.3 mph 0.17 in Rain , Thunderstorm Heavy Thunderstorms and Rain
12:28 PM 73.4 °F - 73.4 °F 100% 30.08 in 2.0 mi WSW 9.2 mph 19.6 mph 0.17 in Rain , Thunderstorm Thunderstorms and Rain
12:40 PM 73.4 °F - 73.4 °F 100% 30.08 in 2.5 mi SW 5.8 mph 16.1 mph 0.19 in Rain , Thunderstorm Thunderstorms and Rain
12:56 PM 73.9 °F - 73.0 °F 97% 30.07 in 4.0 mi WSW 6.9 mph - 0.22 in Rain , Thunderstorm Light Thunderstorms and Rain
1:01 PM 73.4 °F - 73.4 °F 100% 30.07 in 5.0 mi WSW 5.8 mph - N/A Rain Light Rain
1:37 PM 75.2 °F - 73.4 °F 94% 30.05 in 10.0 mi West 5.8 mph - 0.00 in   Mostly Cloudy
1:56 PM 78.1 °F - 73.9 °F 87% 30.06 in 10.0 mi WSW 8.1 mph - 0.00 in   Mostly Cloudy
2:56 PM 81.0 °F 86.7 °F 75.0 °F 82% 30.05 in 10.0 mi SW 10.4 mph - 0.00 in   Overcast
3:56 PM 82.9 °F 92.8 °F 78.1 °F 85% 30.04 in 10.0 mi SSW 8.1 mph - N/A   Overcast
4:21 PM 82.4 °F 92.4 °F 78.8 °F 89% 30.03 in 10.0 mi SW 16.1 mph - 0.00 in Rain Light Rain
4:52 PM 80.6 °F 88.1 °F 78.8 °F 94% 30.01 in 5.0 mi SW 5.8 mph 21.9 mph 0.04 in Rain , Thunderstorm Light Thunderstorms and Rain
4:56 PM 82.0 °F 92.8 °F 80.1 °F 94% 30.02 in 5.0 mi SW 9.2 mph - 0.04 in Rain , Thunderstorm Light Thunderstorms and Rain
5:11 PM 82.4 °F 92.4 °F 78.8 °F 89% 30.01 in 10.0 mi SW 12.7 mph - 0.00 in Thunderstorm Thunderstorm
5:23 PM 80.6 °F 88.1 °F 78.8 °F 94% 30.01 in 10.0 mi WSW 8.1 mph 17.3 mph 0.00 in Rain , Thunderstorm Light Thunderstorms and Rain
5:56 PM 71.1 °F - 70.0 °F 96% 30.04 in 0.2 mi NW 24.2 mph 35.7 mph 0.26 in Fog , Rain , Thunderstorm Heavy Thunderstorms and Rain
6:13 PM 71.6 °F - 69.8 °F 94% 30.02 in 3.0 mi NW 5.8 mph - 0.17 in Rain , Thunderstorm Heavy Thunderstorms and Rain
6:56 PM 73.0 °F - 71.1 °F 93% 30.04 in 10.0 mi SE 5.8 mph - 0.18 in Rain , Thunderstorm Light Thunderstorms and Rain
7:29 PM 73.4 °F - 71.6 °F 94% 30.06 in 0.5 mi WNW 15.0 mph 24.2 mph 0.06 in Fog , Rain , Thunderstorm Light Thunderstorms and Rain
7:52 PM 71.6 °F - 69.8 °F 94% 30.06 in 3.0 mi WSW 8.1 mph - 0.28 in Rain , Thunderstorm Thunderstorms and Rain
7:56 PM 71.1 °F - 70.0 °F 96% 30.06 in 3.0 mi WSW 6.9 mph - 0.29 in Rain , Thunderstorm Heavy Thunderstorms and Rain
8:56 PM 72.0 °F - 71.1 °F 97% 30.08 in 7.0 mi SW 4.6 mph - 0.05 in Rain , Thunderstorm Thunderstorms and Rain
9:06 PM 71.6 °F - 71.6 °F 100% 30.07 in 5.0 mi WSW 4.6 mph - 0.02 in Rain Heavy Rain
9:56 PM 73.0 °F - 72.0 °F 96% 30.08 in 7.0 mi Calm Calm - 0.06 in Rain Light Rain
10:56 PM 73.0 °F - 73.0 °F 100% 30.06 in 10.0 mi Calm Calm - 0.03 in Rain Light Rain
11:56 PM 73.9 °F - 73.0 °F 97% 30.04 in 10.0 mi SSW 4.6 mph - N/A   Clear